| time (UTC) | temp C | wind direction | speed KPH | gust KPH | rain 1hr cm | rain 24hr cm | rain mn cm | humidity % | barometer mb |
| 20260503203949 | 26 | 137 | 1.6 | 4.8 | 0.00 | 0.03 | 0.00 | 44 | 1011.4 |
| 20260503203849 | 26 | 315 | 0.0 | 3.2 | 0.00 | 0.03 | 0.00 | 43 | 1011.4 |
| 20260503203749 | 26 | 257 | 1.6 | 3.2 | 0.00 | 0.03 | 0.00 | 43 | 1011.4 |
| 20260503203449 | 26 | 0 | 0.0 | 3.2 | 0.00 | 0.03 | 0.00 | 43 | 1011.5 |
| 20260503203349 | 26 | 300 | 1.6 | 4.8 | 0.00 | 0.03 | 0.00 | 43 | 1011.5 |
| 20260503203049 | 26 | 298 | 1.6 | 3.2 | 0.00 | 0.03 | 0.00 | 43 | 1011.5 |
| 20260503202949 | 26 | 324 | 3.2 | 6.4 | 0.00 | 0.03 | 0.00 | 44 | 1011.5 |
| 20260503202849 | 26 | 325 | 0.0 | 3.2 | 0.00 | 0.03 | 0.00 | 45 | 1011.6 |
| 20260503202749 | 25 | 246 | 1.6 | 3.2 | 0.00 | 0.03 | 0.00 | 44 | 1011.6 |
| 20260503202449 | 25 | 339 | 1.6 | 4.8 | 0.00 | 0.03 | 0.00 | 44 | 1011.6 |
| 20260503202349 | 25 | 286 | 0.0 | 3.2 | 0.00 | 0.03 | 0.00 | 44 | 1011.6 |
| 20260503202249 | 25 | 136 | 0.0 | 3.2 | 0.00 | 0.03 | 0.00 | 45 | 1011.6 |
| 20260503201950 | 25 | 91 | 3.2 | 8.0 | 0.00 | 0.03 | 0.00 | 46 | 1011.7 |
| 20260503201849 | 25 | 65 | 1.6 | 3.2 | 0.00 | 0.03 | 0.00 | 45 | 1011.7 |
| 20260503201749 | 25 | 3 | 0.0 | 1.6 | 0.00 | 0.03 | 0.00 | 46 | 1011.7 |
| 20260503201649 | 25 | 99 | 1.6 | 4.8 | 0.00 | 0.03 | 0.00 | 46 | 1011.7 |
| 20260503201350 | 25 | 4 | 1.6 | 6.4 | 0.00 | 0.03 | 0.00 | 45 | 1011.7 |
| 20260503201249 | 25 | 0 | 0.0 | 0.0 | 0.00 | 0.03 | 0.00 | 46 | 1011.7 |
| 20260503201149 | 25 | 251 | 0.0 | 3.2 | 0.00 | 0.03 | 0.00 | 46 | 1011.7 |
| 20260503200850 | 25 | 28 | 1.6 | 4.8 | 0.00 | 0.03 | 0.00 | 45 | 1011.8 |
| 20260503200750 | 25 | 31 | 1.6 | 3.2 | 0.00 | 0.03 | 0.00 | 46 | 1011.8 |
| 20260503200650 | 25 | 278 | 1.6 | 4.8 | 0.00 | 0.03 | 0.00 | 46 | 1011.8 |
| 20260503200549 | 25 | 13 | 3.2 | 8.0 | 0.00 | 0.03 | 0.00 | 46 | 1011.8 |
| 20260503200450 | 25 | 0 | 3.2 | 8.0 | 0.00 | 0.03 | 0.00 | 46 | 1011.8 |
| 20260503200350 | 25 | 22 | 3.2 | 4.8 | 0.00 | 0.03 | 0.00 | 46 | 1011.8 |
| 20260503200250 | 25 | 318 | 3.2 | 6.4 | 0.00 | 0.03 | 0.00 | 46 | 1011.9 |
| 20260503200150 | 25 | 240 | 3.2 | 6.4 | 0.00 | 0.03 | 0.00 | 46 | 1011.8 |
| 20260503200049 | 25 | 219 | 4.8 | 6.4 | 0.00 | 0.03 | 0.00 | 47 | 1011.8 |
| 20260503195950 | 25 | 206 | 3.2 | 6.4 | 0.00 | 0.03 | 0.00 | 47 | 1011.9 |
| 20260503195850 | 25 | 208 | 1.6 | 4.8 | 0.00 | 0.03 | 0.00 | 47 | 1011.9 |
| 20260503195750 | 25 | 19 | 1.6 | 4.8 | 0.00 | 0.03 | 0.00 | 47 | 1011.9 |
| 20260503195650 | 25 | 293 | 0.0 | 3.2 | 0.00 | 0.03 | 0.00 | 46 | 1012.0 |
| 20260503195550 | 25 | 286 | 1.6 | 4.8 | 0.00 | 0.03 | 0.00 | 46 | 1011.9 |
| 20260503195450 | 25 | 282 | 1.6 | 4.8 | 0.00 | 0.03 | 0.00 | 47 | 1012.0 |
| 20260503195350 | 25 | 58 | 0.0 | 3.2 | 0.00 | 0.03 | 0.00 | 47 | 1012.0 |
| 20260503195250 | 25 | 342 | 3.2 | 6.4 | 0.00 | 0.03 | 0.00 | 46 | 1012.0 |
| 20260503195150 | 25 | 1 | 1.6 | 4.8 | 0.00 | 0.03 | 0.00 | 47 | 1012.0 |
| 20260503195050 | 25 | 113 | 0.0 | 3.2 | 0.00 | 0.03 | 0.00 | 48 | 1012.0 |
| 20260503194950 | 25 | 45 | 0.0 | 4.8 | 0.00 | 0.03 | 0.00 | 47 | 1012.0 |
| 20260503194850 | 25 | 350 | 0.0 | 0.0 | 0.00 | 0.03 | 0.00 | 47 | 1012.0 |
| 20260503194750 | 25 | 339 | 1.6 | 3.2 | 0.00 | 0.03 | 0.00 | 48 | 1012.1 |
| 20260503194250 | 25 | 310 | 1.6 | 8.0 | 0.00 | 0.03 | 0.00 | 48 | 1012.1 |
| 20260503193950 | 24 | 286 | 1.6 | 3.2 | 0.00 | 0.03 | 0.00 | 47 | 1012.1 |
| 20260503193850 | 24 | 322 | 3.2 | 6.4 | 0.00 | 0.03 | 0.00 | 48 | 1012.2 |
| 20260503193750 | 24 | 2 | 1.6 | 4.8 | 0.00 | 0.03 | 0.00 | 48 | 1012.2 |
| 20260503193650 | 24 | 237 | 0.0 | 3.2 | 0.00 | 0.03 | 0.00 | 47 | 1012.2 |
| 20260503193551 | 24 | 316 | 1.6 | 4.8 | 0.00 | 0.03 | 0.00 | 47 | 1012.2 |
| 20260503193450 | 24 | 350 | 3.2 | 8.0 | 0.00 | 0.03 | 0.00 | 48 | 1012.2 |
| 20260503193350 | 24 | 336 | 1.6 | 4.8 | 0.00 | 0.03 | 0.00 | 48 | 1012.2 |
| 20260503193250 | 24 | 233 | 1.6 | 4.8 | 0.00 | 0.03 | 0.00 | 48 | 1012.3 |
| 20260503193150 | 24 | 251 | 1.6 | 3.2 | 0.00 | 0.03 | 0.00 | 48 | 1012.3 |
| 20260503193050 | 24 | 299 | 0.0 | 3.2 | 0.00 | 0.03 | 0.00 | 48 | 1012.3 |
| 20260503192950 | 24 | 314 | 0.0 | 1.6 | 0.00 | 0.03 | 0.00 | 48 | 1012.3 |
| 20260503192850 | 24 | 0 | 1.6 | 4.8 | 0.00 | 0.03 | 0.00 | 48 | 1012.3 |
| 20260503192550 | 24 | 21 | 0.0 | 1.6 | 0.00 | 0.03 | 0.00 | 48 | 1012.4 |
| 20260503192450 | 24 | 0 | 0.0 | 0.0 | 0.00 | 0.03 | 0.00 | 49 | 1012.4 |
| 20260503192350 | 24 | 0 | 1.6 | 3.2 | 0.00 | 0.03 | 0.00 | 48 | 1012.4 |
| 20260503191850 | 24 | 330 | 0.0 | 3.2 | 0.00 | 0.03 | 0.00 | 50 | 1012.5 |
| 20260503191750 | 24 | 303 | 0.0 | 1.6 | 0.00 | 0.03 | 0.00 | 50 | 1012.5 |
| 20260503191650 | 24 | 293 | 1.6 | 4.8 | 0.00 | 0.03 | 0.00 | 50 | 1012.5 |
| 20260503191551 | 24 | 287 | 1.6 | 6.4 | 0.00 | 0.03 | 0.00 | 49 | 1012.5 |
| 20260503191251 | 24 | 337 | 0.0 | 3.2 | 0.00 | 0.03 | 0.00 | 50 | 1012.6 |
| 20260503191151 | 24 | 1 | 1.6 | 4.8 | 0.00 | 0.03 | 0.00 | 50 | 1012.6 |
| 20260503191050 | 24 | 125 | 0.0 | 4.8 | 0.00 | 0.03 | 0.00 | 50 | 1012.6 |
| 20260503190950 | 24 | 320 | 1.6 | 8.0 | 0.00 | 0.03 | 0.00 | 51 | 1012.7 |
| 20260503190851 | 24 | 334 | 1.6 | 4.8 | 0.00 | 0.03 | 0.00 | 51 | 1012.6 |
| 20260503190551 | 24 | 217 | 0.0 | 1.6 | 0.00 | 0.03 | 0.00 | 51 | 1012.7 |
| 20260503190451 | 24 | 117 | 3.2 | 6.4 | 0.00 | 0.03 | 0.00 | 51 | 1012.7 |
| 20260503190351 | 24 | 96 | 3.2 | 6.4 | 0.00 | 0.03 | 0.00 | 51 | 1012.7 |
| 20260503190251 | 24 | 108 | 3.2 | 6.4 | 0.00 | 0.03 | 0.00 | 50 | 1012.7 |
| 20260503185951 | 24 | 324 | 0.0 | 3.2 | 0.00 | 0.03 | 0.00 | 51 | 1012.8 |
| 20260503185851 | 24 | 107 | 1.6 | 4.8 | 0.00 | 0.03 | 0.00 | 51 | 1012.8 |
| 20260503185351 | 24 | 304 | 0.0 | 3.2 | 0.00 | 0.03 | 0.00 | 51 | 1012.8 |
| 20260503185251 | 24 | 333 | 0.0 | 3.2 | 0.00 | 0.03 | 0.00 | 52 | 1012.9 |
| 20260503185151 | 24 | 6 | 1.6 | 4.8 | 0.00 | 0.03 | 0.00 | 53 | 1012.9 |
| 20260503185051 | 24 | 316 | 1.6 | 3.2 | 0.00 | 0.03 | 0.00 | 52 | 1012.9 |
| 20260503184951 | 24 | 116 | 0.0 | 4.8 | 0.00 | 0.03 | 0.00 | 53 | 1012.8 |
| 20260503184851 | 24 | 111 | 1.6 | 4.8 | 0.00 | 0.03 | 0.00 | 52 | 1012.9 |
| 20260503184751 | 24 | 22 | 1.6 | 4.8 | 0.00 | 0.03 | 0.00 | 52 | 1012.9 |
| 20260503184651 | 23 | 82 | 0.0 | 3.2 | 0.00 | 0.03 | 0.00 | 53 | 1012.9 |
| 20260503184551 | 23 | 289 | 1.6 | 3.2 | 0.00 | 0.03 | 0.00 | 53 | 1012.9 |
| 20260503184251 | 23 | 74 | 0.0 | 3.2 | 0.00 | 0.03 | 0.00 | 54 | 1012.9 |
| 20260503184151 | 23 | 0 | 0.0 | 0.0 | 0.00 | 0.03 | 0.00 | 54 | 1012.9 |
| 20260503184051 | 23 | 339 | 0.0 | 1.6 | 0.00 | 0.03 | 0.00 | 54 | 1012.9 |
| 20260503183951 | 23 | 0 | 1.6 | 3.2 | 0.00 | 0.03 | 0.00 | 54 | 1013.0 |
| 20260503183851 | 23 | 220 | 1.6 | 4.8 | 0.00 | 0.03 | 0.00 | 54 | 1013.0 |
| 20260503183751 | 23 | 227 | 1.6 | 6.4 | 0.00 | 0.03 | 0.00 | 53 | 1013.0 |
| 20260503183651 | 23 | 4 | 1.6 | 6.4 | 0.00 | 0.03 | 0.00 | 55 | 1013.0 |
| 20260503183551 | 23 | 324 | 1.6 | 4.8 | 0.00 | 0.03 | 0.00 | 53 | 1013.0 |
| 20260503183451 | 23 | 296 | 1.6 | 4.8 | 0.00 | 0.03 | 0.00 | 53 | 1013.0 |
| 20260503183351 | 23 | 337 | 1.6 | 4.8 | 0.00 | 0.03 | 0.00 | 53 | 1013.0 |
| 20260503183051 | 23 | 221 | 0.0 | 4.8 | 0.00 | 0.03 | 0.00 | 53 | 1013.0 |
| 20260503182951 | 23 | 323 | 0.0 | 3.2 | 0.00 | 0.03 | 0.00 | 53 | 1013.0 |
| 20260503182852 | 23 | 330 | 1.6 | 4.8 | 0.00 | 0.03 | 0.00 | 54 | 1013.1 |
| 20260503182751 | 23 | 353 | 1.6 | 3.2 | 0.00 | 0.03 | 0.00 | 55 | 1013.1 |
| 20260503182651 | 23 | 337 | 1.6 | 4.8 | 0.00 | 0.03 | 0.00 | 55 | 1013.1 |
| 20260503182551 | 23 | 0 | 0.0 | 0.0 | 0.00 | 0.03 | 0.00 | 54 | 1013.1 |
| 20260503182451 | 23 | 0 | 0.0 | 0.0 | 0.00 | 0.03 | 0.00 | 55 | 1013.1 |
| 20260503182351 | 23 | 0 | 0.0 | 0.0 | 0.00 | 0.03 | 0.00 | 56 | 1013.1 |
| 20260503182251 | 23 | 263 | 0.0 | 1.6 | 0.00 | 0.03 | 0.00 | 55 | 1013.1 |
| 20260503181951 | 23 | 227 | 3.2 | 4.8 | 0.00 | 0.03 | 0.00 | 55 | 1013.1 |
| 20260503181851 | 23 | 206 | 1.6 | 4.8 | 0.00 | 0.03 | 0.00 | 54 | 1013.1 |
| 20260503181751 | 23 | 233 | 1.6 | 3.2 | 0.00 | 0.03 | 0.00 | 54 | 1013.1 |
| 20260503181651 | 23 | 110 | 1.6 | 6.4 | 0.00 | 0.03 | 0.00 | 55 | 1013.1 |
| 20260503180952 | 22 | 349 | 0.0 | 3.2 | 0.00 | 0.03 | 0.00 | 56 | 1013.2 |
| 20260503180852 | 22 | 300 | 1.6 | 4.8 | 0.00 | 0.03 | 0.00 | 55 | 1013.1 |
| 20260503180752 | 22 | 285 | 1.6 | 3.2 | 0.00 | 0.03 | 0.00 | 55 | 1013.1 |
| 20260503180452 | 22 | 36 | 3.2 | 8.0 | 0.00 | 0.03 | 0.00 | 57 | 1013.2 |
| 20260503180352 | 22 | 292 | 0.0 | 0.0 | 0.00 | 0.03 | 0.00 | 56 | 1013.2 |
| 20260503180252 | 22 | 260 | 0.0 | 3.2 | 0.00 | 0.03 | 0.00 | 55 | 1013.2 |
| 20260503180152 | 22 | 243 | 3.2 | 4.8 | 0.00 | 0.03 | 0.00 | 55 | 1013.2 |
| 20260503175852 | 22 | 264 | 1.6 | 3.2 | 0.00 | 0.03 | 0.00 | 54 | 1013.2 |
| 20260503175752 | 22 | 221 | 0.0 | 3.2 | 0.00 | 0.03 | 0.00 | 53 | 1013.2 |
| 20260503175652 | 22 | 266 | 1.6 | 3.2 | 0.00 | 0.03 | 0.00 | 53 | 1013.2 |
| 20260503175552 | 22 | 310 | 0.0 | 3.2 | 0.00 | 0.03 | 0.00 | 54 | 1013.2 |
| 20260503175452 | 22 | 227 | 0.0 | 3.2 | 0.00 | 0.03 | 0.00 | 53 | 1013.2 |
| 20260503174952 | 22 | 289 | 1.6 | 3.2 | 0.00 | 0.03 | 0.00 | 55 | 1013.3 |
| 20260503174852 | 22 | 40 | 3.2 | 6.4 | 0.00 | 0.03 | 0.00 | 54 | 1013.3 |
| 20260503174752 | 22 | 23 | 3.2 | 6.4 | 0.00 | 0.03 | 0.00 | 54 | 1013.3 |
| 20260503174652 | 22 | 31 | 1.6 | 3.2 | 0.00 | 0.03 | 0.00 | 55 | 1013.3 |
| 20260503174552 | 22 | 84 | 0.0 | 3.2 | 0.00 | 0.03 | 0.00 | 56 | 1013.3 |
| 20260503174452 | 22 | 338 | 0.0 | 3.2 | 0.00 | 0.03 | 0.00 | 55 | 1013.3 |
| 20260503174353 | 22 | 317 | 3.2 | 6.4 | 0.00 | 0.03 | 0.00 | 55 | 1013.3 |
| 20260503174052 | 22 | 247 | 1.6 | 4.8 | 0.00 | 0.03 | 0.00 | 55 | 1013.3 |
| 20260503173952 | 22 | 277 | 1.6 | 4.8 | 0.00 | 0.03 | 0.00 | 55 | 1013.3 |
| 20260503173852 | 22 | 217 | 0.0 | 3.2 | 0.00 | 0.03 | 0.00 | 55 | 1013.3 |
| 20260503173752 | 22 | 0 | 0.0 | 0.0 | 0.00 | 0.03 | 0.00 | 56 | 1013.3 |
| 20260503173652 | 22 | 224 | 0.0 | 0.0 | 0.00 | 0.03 | 0.00 | 56 | 1013.3 |
| 20260503173552 | 22 | 229 | 0.0 | 0.0 | 0.00 | 0.03 | 0.00 | 56 | 1013.3 |
| 20260503173452 | 22 | 253 | 1.6 | 4.8 | 0.00 | 0.03 | 0.00 | 55 | 1013.4 |
| 20260503173352 | 22 | 304 | 3.2 | 6.4 | 0.00 | 0.03 | 0.00 | 54 | 1013.4 |
| 20260503173252 | 22 | 286 | 3.2 | 6.4 | 0.00 | 0.03 | 0.00 | 55 | 1013.4 |
| 20260503172952 | 22 | 354 | 1.6 | 4.8 | 0.00 | 0.03 | 0.00 | 55 | 1013.4 |
| 20260503172653 | 22 | 311 | 1.6 | 4.8 | 0.00 | 0.03 | 0.00 | 55 | 1013.5 |
| 20260503172552 | 22 | 242 | 0.0 | 3.2 | 0.00 | 0.03 | 0.00 | 55 | 1013.5 |
| 20260503172453 | 22 | 149 | 0.0 | 3.2 | 0.00 | 0.03 | 0.00 | 55 | 1013.5 |
| 20260503172352 | 22 | 149 | 1.6 | 3.2 | 0.00 | 0.03 | 0.00 | 55 | 1013.5 |
| 20260503172253 | 22 | 34 | 3.2 | 4.8 | 0.00 | 0.03 | 0.00 | 55 | 1013.5 |
| 20260503172153 | 22 | 303 | 0.0 | 1.6 | 0.00 | 0.03 | 0.00 | 55 | 1013.5 |
| 20260503172052 | 22 | 296 | 1.6 | 3.2 | 0.00 | 0.03 | 0.00 | 55 | 1013.5 |
| 20260503171953 | 22 | 268 | 1.6 | 4.8 | 0.00 | 0.03 | 0.00 | 55 | 1013.5 |
| 20260503171853 | 22 | 338 | 0.0 | 3.2 | 0.00 | 0.03 | 0.00 | 55 | 1013.5 |
| 20260503171752 | 21 | 307 | 0.0 | 3.2 | 0.00 | 0.03 | 0.00 | 54 | 1013.5 |
| 20260503171653 | 21 | 270 | 0.0 | 1.6 | 0.00 | 0.03 | 0.00 | 53 | 1013.5 |
| 20260503171553 | 21 | 23 | 1.6 | 6.4 | 0.00 | 0.03 | 0.00 | 54 | 1013.5 |
| 20260503171452 | 21 | 0 | 0.0 | 0.0 | 0.00 | 0.03 | 0.00 | 54 | 1013.5 |
| 20260503171352 | 21 | 250 | 0.0 | 3.2 | 0.00 | 0.03 | 0.00 | 55 | 1013.5 |
| 20260503171253 | 21 | 344 | 1.6 | 3.2 | 0.00 | 0.03 | 0.00 | 55 | 1013.5 |
| 20260503171153 | 21 | 325 | 3.2 | 8.0 | 0.00 | 0.03 | 0.00 | 54 | 1013.5 |
| 20260503171053 | 21 | 3 | 3.2 | 4.8 | 0.00 | 0.03 | 0.00 | 54 | 1013.5 |
| 20260503170952 | 21 | 127 | 4.8 | 9.7 | 0.00 | 0.03 | 0.00 | 53 | 1013.5 |
| 20260503170853 | 21 | 101 | 1.6 | 3.2 | 0.00 | 0.03 | 0.00 | 55 | 1013.5 |
| 20260503170753 | 21 | 102 | 1.6 | 4.8 | 0.00 | 0.03 | 0.00 | 55 | 1013.5 |
| 20260503170653 | 21 | 231 | 1.6 | 4.8 | 0.00 | 0.03 | 0.00 | 53 | 1013.5 |
| 20260503170553 | 21 | 256 | 3.2 | 4.8 | 0.00 | 0.03 | 0.00 | 52 | 1013.5 |
| 20260503170453 | 21 | 265 | 0.0 | 0.0 | 0.00 | 0.03 | 0.00 | 52 | 1013.5 |
| 20260503170353 | 21 | 336 | 1.6 | 3.2 | 0.00 | 0.03 | 0.00 | 54 | 1013.5 |
| 20260503170253 | 21 | 216 | 0.0 | 3.2 | 0.00 | 0.03 | 0.00 | 54 | 1013.5 |
| 20260503170153 | 21 | 0 | 0.0 | 0.0 | 0.00 | 0.03 | 0.00 | 55 | 1013.5 |
| 20260503160154 | 20 | 26 | 0.0 | 3.2 | 0.00 | 0.03 | 0.00 | 59 | 1013.8 |
| 20260503150955 | 17 | 0 | 0.0 | 0.0 | 0.00 | 0.03 | 0.00 | 74 | 1014.0 |
| 20260503150655 | 17 | 244 | 0.0 | 1.6 | 0.00 | 0.03 | 0.00 | 72 | 1014.0 |
| 20260503150555 | 17 | 237 | 0.0 | 1.6 | 0.00 | 0.03 | 0.00 | 72 | 1014.0 |
| 20260503150255 | 17 | 8 | 1.6 | 3.2 | 0.00 | 0.03 | 0.00 | 68 | 1013.9 |
| 20260503150155 | 17 | 295 | 0.0 | 3.2 | 0.00 | 0.03 | 0.00 | 69 | 1013.9 |
| 20260503140156 | 10 | 0 | 0.0 | 0.0 | 0.00 | 0.03 | 0.00 | 97 | 1013.7 |
| 20260503131357 | 9 | 0 | 0.0 | 0.0 | 0.00 | 0.03 | 0.00 | 99 | 1013.7 |
| 20260503131257 | 9 | 0 | 0.0 | 0.0 | 0.00 | 0.03 | 0.00 | 99 | 1013.7 |
| 20260503130957 | 9 | 0 | 0.0 | 0.0 | 0.00 | 0.03 | 0.00 | 99 | 1013.8 |
| 20260503130857 | 9 | 0 | 0.0 | 0.0 | 0.00 | 0.03 | 0.00 | 99 | 1013.8 |
| 20260503130757 | 9 | 0 | 0.0 | 0.0 | 0.00 | 0.03 | 0.00 | 99 | 1013.8 |
| 20260503130657 | 9 | 0 | 0.0 | 0.0 | 0.00 | 0.03 | 0.00 | 99 | 1013.8 |
| 20260503130557 | 9 | 0 | 0.0 | 0.0 | 0.00 | 0.03 | 0.00 | 99 | 1013.8 |
| 20260503130457 | 9 | 0 | 0.0 | 0.0 | 0.00 | 0.03 | 0.00 | 99 | 1013.8 |
| 20260503130257 | 9 | 0 | 0.0 | 0.0 | 0.00 | 0.03 | 0.00 | 99 | 1013.8 |
| 20260503130157 | 9 | 0 | 0.0 | 0.0 | 0.00 | 0.03 | 0.00 | 99 | 1013.8 |
| 20260503120158 | 10 | 0 | 0.0 | 0.0 | 0.00 | 0.03 | 0.00 | 98 | 1013.9 |
| 20260503110559 | 10 | 0 | 0.0 | 0.0 | 0.00 | 0.03 | 0.00 | 97 | 1014.0 |
| 20260503110259 | 10 | 0 | 0.0 | 0.0 | 0.00 | 0.03 | 0.00 | 97 | 1014.0 |
| 20260503110159 | 10 | 0 | 0.0 | 0.0 | 0.00 | 0.03 | 0.00 | 97 | 1014.0 |
| 20260503090501 | 12 | 0 | 0.0 | 0.0 | 0.00 | 0.03 | 0.00 | 93 | 1014.2 |
| 20260503090401 | 12 | 0 | 0.0 | 0.0 | 0.00 | 0.03 | 0.00 | 93 | 1014.3 |
| 20260503081602 | 13 | 100 | 0.0 | 3.2 | 0.00 | 0.03 | 0.00 | 89 | 1014.4 |
| 20260503081502 | 13 | 45 | 0.0 | 3.2 | 0.00 | 0.03 | 0.00 | 89 | 1014.4 |
| 20260503081402 | 13 | 0 | 0.0 | 0.0 | 0.00 | 0.03 | 0.00 | 89 | 1014.4 |
| 20260503081302 | 13 | 50 | 0.0 | 0.0 | 0.00 | 0.03 | 0.00 | 89 | 1014.5 |
| 20260503081202 | 13 | 0 | 0.0 | 0.0 | 0.00 | 0.03 | 0.00 | 88 | 1014.5 |
| 20260503081102 | 13 | 340 | 0.0 | 0.0 | 0.00 | 0.03 | 0.00 | 88 | 1014.5 |
| 20260503080802 | 13 | 0 | 0.0 | 0.0 | 0.00 | 0.03 | 0.00 | 88 | 1014.5 |
| 20260503080702 | 13 | 0 | 0.0 | 0.0 | 0.00 | 0.03 | 0.00 | 88 | 1014.5 |
| 20260503080602 | 13 | 0 | 0.0 | 0.0 | 0.00 | 0.03 | 0.00 | 88 | 1014.4 |
| 20260503080302 | 13 | 0 | 0.0 | 0.0 | 0.00 | 0.03 | 0.00 | 87 | 1014.4 |
| 20260503080202 | 13 | 0 | 0.0 | 0.0 | 0.00 | 0.03 | 0.00 | 87 | 1014.4 |
| 20260503072902 | 13 | 115 | 0.0 | 1.6 | 0.00 | 0.03 | 0.00 | 87 | 1014.3 |
| 20260503072803 | 13 | 0 | 0.0 | 0.0 | 0.00 | 0.03 | 0.00 | 87 | 1014.3 |
| 20260503072703 | 13 | 61 | 0.0 | 3.2 | 0.00 | 0.03 | 0.00 | 87 | 1014.3 |
| 20260503072603 | 13 | 0 | 0.0 | 0.0 | 0.00 | 0.03 | 0.00 | 87 | 1014.3 |
| 20260503072305 | 13 | 0 | 0.0 | 0.0 | 0.00 | 0.03 | 0.00 | 86 | 1014.3 |
| 20260503072203 | 13 | 0 | 0.0 | 0.0 | 0.00 | 0.03 | 0.00 | 86 | 1014.3 |
| 20260503072103 | 13 | 0 | 0.0 | 0.0 | 0.00 | 0.03 | 0.00 | 86 | 1014.3 |
| 20260503072003 | 13 | 38 | 0.0 | 1.6 | 0.00 | 0.03 | 0.00 | 86 | 1014.3 |
| 20260503071903 | 13 | 0 | 0.0 | 0.0 | 0.00 | 0.03 | 0.00 | 86 | 1014.3 |
| 20260503071803 | 13 | 0 | 0.0 | 0.0 | 0.00 | 0.03 | 0.00 | 86 | 1014.3 |
| 20260503071703 | 13 | 0 | 0.0 | 0.0 | 0.00 | 0.03 | 0.00 | 86 | 1014.3 |
| 20260503071603 | 13 | 0 | 0.0 | 0.0 | 0.00 | 0.03 | 0.00 | 86 | 1014.3 |
| 20260503071503 | 13 | 0 | 0.0 | 0.0 | 0.00 | 0.03 | 0.00 | 86 | 1014.3 |
| 20260503071203 | 13 | 0 | 0.0 | 0.0 | 0.00 | 0.03 | 0.00 | 86 | 1014.3 |
| 20260503071103 | 13 | 0 | 0.0 | 0.0 | 0.00 | 0.03 | 0.00 | 86 | 1014.3 |
| 20260503071003 | 14 | 58 | 0.0 | 0.0 | 0.00 | 0.03 | 0.00 | 86 | 1014.3 |
| 20260503070903 | 14 | 55 | 0.0 | 0.0 | 0.00 | 0.03 | 0.00 | 86 | 1014.3 |
| 20260503070803 | 14 | 0 | 0.0 | 0.0 | 0.00 | 0.03 | 0.00 | 86 | 1014.3 |
| 20260503070703 | 14 | 0 | 0.0 | 0.0 | 0.00 | 0.03 | 0.00 | 86 | 1014.3 |
| 20260503070603 | 14 | 0 | 0.0 | 0.0 | 0.00 | 0.03 | 0.00 | 86 | 1014.3 |
| 20260503070503 | 14 | 0 | 0.0 | 0.0 | 0.00 | 0.03 | 0.00 | 86 | 1014.3 |
| 20260503070403 | 14 | 0 | 0.0 | 0.0 | 0.00 | 0.03 | 0.00 | 86 | 1014.3 |
| 20260503070306 | 14 | 0 | 0.0 | 0.0 | 0.00 | 0.03 | 0.00 | 85 | 1014.3 |
| 20260503070203 | 14 | 0 | 0.0 | 0.0 | 0.00 | 0.03 | 0.00 | 85 | 1014.3 |
| 20260503070103 | 14 | 0 | 0.0 | 0.0 | 0.00 | 0.03 | 0.00 | 86 | 1014.3 |
| 20260503060304 | 15 | 0 | 0.0 | 0.0 | 0.00 | 0.03 | 0.03 | 80 | 1014.1 |
| 20260503060204 | 15 | 0 | 0.0 | 0.0 | 0.00 | 0.03 | 0.03 | 80 | 1014.1 |
| 20260503060104 | 15 | 0 | 0.0 | 0.0 | 0.00 | 0.03 | 0.03 | 80 | 1014.1 |
| 20260503055104 | 16 | 0 | 0.0 | 0.0 | 0.00 | 0.03 | 0.03 | 79 | 1014.0 |
| 20260503055004 | 16 | 0 | 0.0 | 0.0 | 0.00 | 0.03 | 0.03 | 78 | 1014.0 |
| 20260503054904 | 16 | 0 | 0.0 | 0.0 | 0.00 | 0.03 | 0.03 | 78 | 1014.0 |
| 20260503054804 | 16 | 0 | 0.0 | 0.0 | 0.00 | 0.03 | 0.03 | 78 | 1014.0 |
| 20260503054704 | 16 | 0 | 0.0 | 0.0 | 0.00 | 0.03 | 0.03 | 78 | 1014.0 |
| 20260503054604 | 16 | 0 | 0.0 | 0.0 | 0.00 | 0.03 | 0.03 | 78 | 1014.0 |
| 20260503054505 | 16 | 0 | 0.0 | 0.0 | 0.00 | 0.03 | 0.03 | 78 | 1014.0 |
| 20260503054405 | 16 | 0 | 0.0 | 0.0 | 0.00 | 0.03 | 0.03 | 78 | 1014.0 |
| 20260503054305 | 16 | 0 | 0.0 | 0.0 | 0.00 | 0.03 | 0.03 | 78 | 1014.0 |
| 20260503054204 | 16 | 0 | 0.0 | 0.0 | 0.00 | 0.03 | 0.03 | 77 | 1014.0 |
| 20260503054105 | 16 | 0 | 0.0 | 0.0 | 0.00 | 0.03 | 0.03 | 77 | 1013.9 |
| 20260503054005 | 16 | 0 | 0.0 | 0.0 | 0.00 | 0.03 | 0.03 | 77 | 1013.9 |
| 20260503053905 | 16 | 0 | 0.0 | 0.0 | 0.00 | 0.03 | 0.03 | 76 | 1013.9 |
| 20260503053605 | 16 | 0 | 0.0 | 0.0 | 0.00 | 0.03 | 0.03 | 76 | 1013.9 |
| 20260503053505 | 16 | 0 | 0.0 | 0.0 | 0.00 | 0.03 | 0.03 | 75 | 1013.9 |
| 20260503053405 | 16 | 0 | 0.0 | 0.0 | 0.00 | 0.03 | 0.03 | 75 | 1013.9 |
| 20260503053305 | 16 | 0 | 0.0 | 0.0 | 0.00 | 0.03 | 0.03 | 75 | 1013.9 |
| 20260503053205 | 16 | 0 | 0.0 | 0.0 | 0.00 | 0.03 | 0.03 | 74 | 1013.9 |
| 20260503052905 | 16 | 0 | 0.0 | 0.0 | 0.00 | 0.03 | 0.03 | 74 | 1013.9 |
| 20260503052805 | 17 | 0 | 0.0 | 0.0 | 0.00 | 0.03 | 0.03 | 74 | 1013.9 |
| 20260503052705 | 17 | 0 | 0.0 | 0.0 | 0.00 | 0.03 | 0.03 | 73 | 1013.9 |
| 20260503052605 | 17 | 0 | 0.0 | 0.0 | 0.00 | 0.03 | 0.03 | 73 | 1013.9 |
| 20260503052505 | 17 | 0 | 0.0 | 0.0 | 0.00 | 0.03 | 0.03 | 73 | 1013.9 |
| 20260503052405 | 17 | 0 | 0.0 | 0.0 | 0.00 | 0.03 | 0.03 | 73 | 1013.9 |
| 20260503052305 | 17 | 0 | 0.0 | 0.0 | 0.00 | 0.03 | 0.03 | 72 | 1014.0 |
| 20260503052205 | 17 | 0 | 0.0 | 0.0 | 0.00 | 0.03 | 0.03 | 71 | 1014.0 |
| 20260503052105 | 17 | 0 | 0.0 | 0.0 | 0.00 | 0.03 | 0.03 | 71 | 1014.0 |
| 20260503052005 | 17 | 0 | 0.0 | 0.0 | 0.00 | 0.03 | 0.03 | 70 | 1014.0 |
| 20260503051705 | 17 | 0 | 0.0 | 0.0 | 0.00 | 0.03 | 0.03 | 67 | 1013.9 |
| 20260503051405 | 17 | 0 | 0.0 | 0.0 | 0.00 | 0.03 | 0.03 | 65 | 1013.9 |
| 20260503051305 | 17 | 0 | 0.0 | 0.0 | 0.00 | 0.03 | 0.03 | 65 | 1013.9 |
| 20260503051205 | 17 | 0 | 0.0 | 0.0 | 0.00 | 0.03 | 0.03 | 65 | 1013.9 |
| 20260503051105 | 17 | 0 | 0.0 | 0.0 | 0.00 | 0.03 | 0.03 | 65 | 1013.9 |
| 20260503051005 | 17 | 0 | 0.0 | 0.0 | 0.00 | 0.03 | 0.03 | 65 | 1013.9 |
| 20260503050905 | 17 | 0 | 0.0 | 0.0 | 0.00 | 0.03 | 0.03 | 64 | 1013.9 |
| 20260503050805 | 17 | 255 | 0.0 | 1.6 | 0.00 | 0.03 | 0.03 | 64 | 1013.9 |
| 20260503050705 | 17 | 0 | 0.0 | 0.0 | 0.00 | 0.03 | 0.03 | 64 | 1013.9 |
| 20260503050605 | 17 | 214 | 0.0 | 3.2 | 0.00 | 0.03 | 0.03 | 63 | 1013.8 |
| 20260503050505 | 17 | 0 | 0.0 | 0.0 | 0.00 | 0.03 | 0.03 | 63 | 1013.8 |
| 20260503050205 | 17 | 0 | 0.0 | 0.0 | 0.00 | 0.03 | 0.03 | 63 | 1013.8 |
| 20260503050105 | 17 | 0 | 0.0 | 0.0 | 0.00 | 0.03 | 0.03 | 63 | 1013.8 |
| 20260503050005 | 18 | 91 | 0.0 | 1.6 | 0.00 | 0.03 | 0.03 | 62 | 1013.8 |
| 20260503045905 | 18 | 17 | 0.0 | 1.6 | 0.00 | 0.03 | 0.03 | 62 | 1013.8 |
| 20260503045805 | 18 | 0 | 0.0 | 0.0 | 0.00 | 0.03 | 0.03 | 61 | 1013.8 |
| 20260503045505 | 18 | 0 | 0.0 | 0.0 | 0.00 | 0.03 | 0.03 | 60 | 1013.8 |
| 20260503045405 | 18 | 0 | 0.0 | 0.0 | 0.00 | 0.03 | 0.03 | 60 | 1013.8 |
| 20260503045305 | 18 | 0 | 0.0 | 0.0 | 0.00 | 0.03 | 0.03 | 60 | 1013.8 |
| 20260503045206 | 18 | 0 | 0.0 | 0.0 | 0.00 | 0.03 | 0.03 | 60 | 1013.8 |
| 20260503045105 | 18 | 0 | 0.0 | 0.0 | 0.00 | 0.03 | 0.03 | 60 | 1013.8 |
| 20260503045005 | 18 | 0 | 0.0 | 0.0 | 0.00 | 0.03 | 0.03 | 58 | 1013.7 |
| 20260503044905 | 18 | 0 | 0.0 | 0.0 | 0.00 | 0.03 | 0.03 | 59 | 1013.7 |
| 20260503044805 | 18 | 0 | 0.0 | 0.0 | 0.00 | 0.03 | 0.03 | 59 | 1013.7 |
| 20260503044506 | 18 | 0 | 0.0 | 0.0 | 0.00 | 0.03 | 0.03 | 57 | 1013.7 |
| 20260503044406 | 18 | 0 | 0.0 | 0.0 | 0.00 | 0.03 | 0.03 | 57 | 1013.7 |
| 20260503044306 | 18 | 0 | 0.0 | 0.0 | 0.00 | 0.03 | 0.03 | 57 | 1013.6 |
| 20260503043806 | 19 | 0 | 0.0 | 0.0 | 0.00 | 0.03 | 0.03 | 56 | 1013.6 |
| 20260503043706 | 19 | 0 | 0.0 | 0.0 | 0.00 | 0.03 | 0.03 | 56 | 1013.6 |
| 20260503043606 | 19 | 0 | 0.0 | 0.0 | 0.00 | 0.03 | 0.03 | 56 | 1013.6 |
| 20260503043506 | 19 | 0 | 0.0 | 0.0 | 0.00 | 0.03 | 0.03 | 55 | 1013.6 |
| 20260503043405 | 19 | 0 | 0.0 | 0.0 | 0.00 | 0.03 | 0.03 | 55 | 1013.5 |
| 20260503043306 | 19 | 183 | 0.0 | 1.6 | 0.00 | 0.03 | 0.03 | 54 | 1013.5 |
| 20260503043206 | 19 | 0 | 0.0 | 0.0 | 0.00 | 0.03 | 0.03 | 54 | 1013.5 |
| 20260503043106 | 19 | 0 | 0.0 | 0.0 | 0.00 | 0.03 | 0.03 | 54 | 1013.5 |
| 20260503042806 | 20 | 279 | 0.0 | 1.6 | 0.00 | 0.03 | 0.03 | 53 | 1013.5 |
| 20260503042506 | 20 | 282 | 0.0 | 3.2 | 0.00 | 0.03 | 0.03 | 53 | 1013.5 |
| 20260503042406 | 20 | 0 | 0.0 | 0.0 | 0.00 | 0.03 | 0.03 | 54 | 1013.5 |
| 20260503042106 | 20 | 0 | 0.0 | 0.0 | 0.00 | 0.03 | 0.03 | 54 | 1013.5 |
| 20260503042006 | 20 | 0 | 0.0 | 0.0 | 0.00 | 0.03 | 0.03 | 54 | 1013.5 |
| 20260503041506 | 20 | 0 | 0.0 | 0.0 | 0.00 | 0.03 | 0.03 | 54 | 1013.4 |
| 20260503041406 | 20 | 0 | 0.0 | 0.0 | 0.00 | 0.03 | 0.03 | 55 | 1013.4 |
| 20260503041306 | 20 | 0 | 0.0 | 0.0 | 0.00 | 0.03 | 0.03 | 54 | 1013.4 |
| 20260503041006 | 20 | 321 | 0.0 | 1.6 | 0.00 | 0.03 | 0.03 | 55 | 1013.4 |
| 20260503040906 | 20 | 0 | 0.0 | 0.0 | 0.00 | 0.03 | 0.03 | 55 | 1013.4 |
| 20260503040806 | 20 | 0 | 0.0 | 0.0 | 0.00 | 0.03 | 0.03 | 55 | 1013.3 |
| 20260503040706 | 20 | 324 | 1.6 | 4.8 | 0.00 | 0.03 | 0.03 | 55 | 1013.3 |
| 20260503040606 | 20 | 277 | 0.0 | 1.6 | 0.00 | 0.03 | 0.03 | 55 | 1013.3 |
| 20260503040506 | 20 | 0 | 0.0 | 0.0 | 0.00 | 0.03 | 0.03 | 55 | 1013.3 |
| 20260503040406 | 20 | 0 | 0.0 | 0.0 | 0.00 | 0.03 | 0.03 | 55 | 1013.3 |
| 20260503040306 | 20 | 351 | 0.0 | 0.0 | 0.00 | 0.03 | 0.03 | 55 | 1013.3 |
| 20260503040006 | 20 | 0 | 0.0 | 0.0 | 0.03 | 0.03 | 0.03 | 55 | 1013.2 |
| 20260503035706 | 20 | 310 | 0.0 | 1.6 | 0.03 | 0.03 | 0.03 | 55 | 1013.2 |
| 20260503035606 | 20 | 0 | 0.0 | 0.0 | 0.03 | 0.03 | 0.03 | 55 | 1013.1 |
| 20260503035506 | 20 | 304 | 0.0 | 3.2 | 0.03 | 0.03 | 0.03 | 55 | 1013.1 |
| 20260503035406 | 20 | 224 | 0.0 | 3.2 | 0.03 | 0.03 | 0.03 | 55 | 1013.1 |
| 20260503035106 | 20 | 316 | 0.0 | 1.6 | 0.03 | 0.03 | 0.03 | 56 | 1013.1 |
| 20260503035007 | 20 | 330 | 0.0 | 3.2 | 0.03 | 0.03 | 0.03 | 56 | 1013.0 |
| 20260503034907 | 20 | 0 | 0.0 | 0.0 | 0.03 | 0.03 | 0.03 | 56 | 1013.0 |
| 20260503034807 | 20 | 282 | 0.0 | 0.0 | 0.03 | 0.03 | 0.03 | 56 | 1013.0 |
| 20260503034707 | 20 | 0 | 0.0 | 0.0 | 0.03 | 0.03 | 0.03 | 55 | 1013.0 |
| 20260503034607 | 20 | 315 | 0.0 | 1.6 | 0.03 | 0.03 | 0.03 | 56 | 1013.0 |
| 20260503034306 | 21 | 231 | 0.0 | 3.2 | 0.03 | 0.03 | 0.03 | 56 | 1013.0 |
| 20260503034007 | 21 | 234 | 0.0 | 4.8 | 0.03 | 0.03 | 0.03 | 56 | 1012.9 |
| 20260503033907 | 21 | 128 | 0.0 | 4.8 | 0.03 | 0.03 | 0.03 | 56 | 1012.9 |
| 20260503033807 | 21 | 288 | 1.6 | 3.2 | 0.03 | 0.03 | 0.03 | 56 | 1012.9 |
| 20260503033706 | 21 | 353 | 1.6 | 4.8 | 0.03 | 0.03 | 0.03 | 56 | 1012.9 |
| 20260503033607 | 21 | 283 | 3.2 | 6.4 | 0.03 | 0.03 | 0.03 | 56 | 1012.9 |
| 20260503033507 | 21 | 326 | 1.6 | 3.2 | 0.03 | 0.03 | 0.03 | 56 | 1012.9 |
| 20260503033407 | 21 | 356 | 1.6 | 3.2 | 0.03 | 0.03 | 0.03 | 57 | 1012.8 |
| 20260503033107 | 21 | 255 | 0.0 | 1.6 | 0.03 | 0.03 | 0.03 | 57 | 1012.8 |
| 20260503033007 | 21 | 298 | 0.0 | 1.6 | 0.03 | 0.03 | 0.03 | 57 | 1012.8 |
| 20260503032707 | 21 | 280 | 0.0 | 1.6 | 0.03 | 0.03 | 0.03 | 57 | 1012.8 |
| 20260503032607 | 21 | 323 | 1.6 | 4.8 | 0.03 | 0.03 | 0.03 | 57 | 1012.8 |
| 20260503032507 | 21 | 341 | 1.6 | 3.2 | 0.03 | 0.03 | 0.03 | 57 | 1012.7 |
| 20260503032107 | 21 | 282 | 1.6 | 3.2 | 0.03 | 0.03 | 0.03 | 57 | 1012.7 |
| 20260503032007 | 21 | 280 | 1.6 | 4.8 | 0.03 | 0.03 | 0.03 | 57 | 1012.7 |
| 20260503031907 | 21 | 325 | 0.0 | 3.2 | 0.03 | 0.03 | 0.03 | 57 | 1012.7 |
| 20260503031407 | 21 | 8 | 1.6 | 3.2 | 0.03 | 0.03 | 0.03 | 57 | 1012.7 |
| 20260503031307 | 21 | 302 | 0.0 | 1.6 | 0.03 | 0.03 | 0.03 | 57 | 1012.6 |
| 20260503031207 | 21 | 280 | 0.0 | 3.2 | 0.03 | 0.03 | 0.03 | 57 | 1012.6 |
| 20260503031107 | 21 | 336 | 1.6 | 3.2 | 0.03 | 0.03 | 0.03 | 57 | 1012.6 |
| 20260503031007 | 22 | 0 | 0.0 | 0.0 | 0.03 | 0.03 | 0.03 | 57 | 1012.6 |
| 20260503030707 | 22 | 317 | 0.0 | 1.6 | 0.03 | 0.03 | 0.03 | 56 | 1012.6 |
| 20260503030607 | 22 | 0 | 0.0 | 0.0 | 0.03 | 0.03 | 0.03 | 57 | 1012.6 |
| 20260503030507 | 22 | 0 | 0.0 | 0.0 | 0.03 | 0.03 | 0.03 | 57 | 1012.6 |
| 20260503030407 | 22 | 0 | 0.0 | 0.0 | 0.03 | 0.03 | 0.03 | 56 | 1012.5 |
| 20260503030307 | 22 | 270 | 0.0 | 3.2 | 0.03 | 0.03 | 0.03 | 56 | 1012.5 |
| 20260503030207 | 22 | 0 | 0.0 | 0.0 | 0.03 | 0.03 | 0.03 | 56 | 1012.5 |
| 20260503030107 | 22 | 333 | 0.0 | 1.6 | 0.00 | 0.00 | 0.03 | 56 | 1012.5 |
| 20260503030007 | 22 | 0 | 0.0 | 0.0 | 0.00 | 0.00 | 0.00 | 56 | 1012.5 |
| 20260503025908 | 22 | 276 | 0.0 | 1.6 | 0.00 | 0.00 | 0.00 | 55 | 1012.4 |
| 20260503025807 | 22 | 0 | 0.0 | 0.0 | 0.00 | 0.00 | 0.00 | 56 | 1012.4 |
| 20260503025707 | 22 | 0 | 0.0 | 0.0 | 0.00 | 0.00 | 0.00 | 55 | 1012.4 |
| 20260503025607 | 22 | 0 | 0.0 | 0.0 | 0.00 | 0.00 | 0.00 | 55 | 1012.4 |
| 20260503025507 | 22 | 0 | 0.0 | 0.0 | 0.00 | 0.00 | 0.00 | 54 | 1012.4 |
| 20260503025408 | 22 | 0 | 0.0 | 0.0 | 0.00 | 0.00 | 0.00 | 55 | 1012.4 |
| 20260503025307 | 22 | 284 | 0.0 | 1.6 | 0.00 | 0.00 | 0.00 | 55 | 1012.4 |
| 20260503025208 | 22 | 272 | 0.0 | 1.6 | 0.00 | 0.00 | 0.00 | 54 | 1012.3 |
| 20260503025107 | 22 | 0 | 0.0 | 0.0 | 0.00 | 0.00 | 0.00 | 54 | 1012.3 |
| 20260503025008 | 22 | 283 | 0.0 | 3.2 | 0.00 | 0.00 | 0.00 | 54 | 1012.3 |
| 20260503024907 | 22 | 260 | 0.0 | 1.6 | 0.00 | 0.00 | 0.00 | 54 | 1012.3 |
| 20260503024808 | 22 | 271 | 0.0 | 1.6 | 0.00 | 0.00 | 0.00 | 54 | 1012.3 |
| 20260503024707 | 22 | 0 | 0.0 | 0.0 | 0.00 | 0.00 | 0.00 | 54 | 1012.3 |
| 20260503024608 | 22 | 205 | 0.0 | 3.2 | 0.00 | 0.00 | 0.00 | 54 | 1012.3 |
| 20260503024508 | 22 | 233 | 1.6 | 3.2 | 0.00 | 0.00 | 0.00 | 54 | 1012.3 |
| 20260503024408 | 22 | 268 | 0.0 | 1.6 | 0.00 | 0.00 | 0.00 | 53 | 1012.3 |
| 20260503024307 | 22 | 323 | 0.0 | 3.2 | 0.00 | 0.00 | 0.00 | 53 | 1012.3 |
| 20260503024208 | 22 | 0 | 0.0 | 0.0 | 0.00 | 0.00 | 0.00 | 53 | 1012.3 |
| 20260503023908 | 23 | 274 | 1.6 | 3.2 | 0.00 | 0.00 | 0.00 | 53 | 1012.3 |
| 20260503023808 | 23 | 73 | 0.0 | 0.0 | 0.00 | 0.00 | 0.00 | 53 | 1012.3 |
| 20260503023708 | 23 | 0 | 0.0 | 0.0 | 0.00 | 0.00 | 0.00 | 52 | 1012.3 |
| 20260503023608 | 23 | 315 | 0.0 | 3.2 | 0.00 | 0.00 | 0.00 | 52 | 1012.3 |
| 20260503023308 | 23 | 280 | 3.2 | 6.4 | 0.00 | 0.00 | 0.00 | 52 | 1012.2 |
| 20260503023008 | 23 | 137 | 0.0 | 0.0 | 0.00 | 0.00 | 0.00 | 52 | 1012.2 |
| 20260503022908 | 23 | 137 | 0.0 | 1.6 | 0.00 | 0.00 | 0.00 | 52 | 1012.2 |
| 20260503022808 | 23 | 265 | 0.0 | 1.6 | 0.00 | 0.00 | 0.00 | 51 | 1012.2 |
| 20260503022708 | 23 | 242 | 0.0 | 3.2 | 0.00 | 0.00 | 0.00 | 51 | 1012.2 |
| 20260503022608 | 23 | 357 | 1.6 | 3.2 | 0.00 | 0.00 | 0.00 | 52 | 1012.1 |
| 20260503022308 | 23 | 344 | 1.6 | 3.2 | 0.00 | 0.00 | 0.00 | 51 | 1012.2 |
| 20260503022208 | 23 | 243 | 0.0 | 4.8 | 0.00 | 0.00 | 0.00 | 51 | 1012.2 |
| 20260503021908 | 23 | 11 | 1.6 | 4.8 | 0.00 | 0.00 | 0.00 | 51 | 1012.1 |
| 20260503021808 | 23 | 358 | 0.0 | 4.8 | 0.00 | 0.00 | 0.00 | 50 | 1012.1 |
| 20260503021708 | 23 | 327 | 0.0 | 1.6 | 0.00 | 0.00 | 0.00 | 50 | 1012.2 |
| 20260503021608 | 24 | 12 | 0.0 | 1.6 | 0.00 | 0.00 | 0.00 | 50 | 1012.2 |
| 20260503021508 | 24 | 311 | 1.6 | 3.2 | 0.00 | 0.00 | 0.00 | 50 | 1012.2 |
| 20260503021408 | 24 | 284 | 0.0 | 3.2 | 0.00 | 0.00 | 0.00 | 50 | 1012.2 |
| 20260503021308 | 24 | 312 | 0.0 | 3.2 | 0.00 | 0.00 | 0.00 | 50 | 1012.2 |
| 20260503021208 | 24 | 304 | 0.0 | 3.2 | 0.00 | 0.00 | 0.00 | 49 | 1012.1 |
| 20260503021108 | 24 | 337 | 0.0 | 3.2 | 0.00 | 0.00 | 0.00 | 49 | 1012.2 |
| 20260503021008 | 24 | 303 | 0.0 | 1.6 | 0.00 | 0.00 | 0.00 | 49 | 1012.1 |
| 20260503020708 | 25 | 257 | 0.0 | 0.0 | 0.00 | 0.00 | 0.00 | 49 | 1012.2 |
| 20260503020608 | 25 | 312 | 0.0 | 3.2 | 0.00 | 0.00 | 0.00 | 49 | 1012.2 |
| 20260503020508 | 25 | 111 | 0.0 | 3.2 | 0.00 | 0.00 | 0.00 | 48 | 1012.2 |
| 20260503020409 | 25 | 330 | 1.6 | 3.2 | 0.00 | 0.00 | 0.00 | 48 | 1012.2 |
| 20260503020308 | 25 | 346 | 1.6 | 4.8 | 0.00 | 0.00 | 0.00 | 48 | 1012.2 |
| 20260503020208 | 25 | 69 | 0.0 | 1.6 | 0.00 | 0.00 | 0.00 | 48 | 1012.2 |
| 20260503015908 | 25 | 323 | 0.0 | 3.2 | 0.00 | 0.00 | 0.00 | 47 | 1012.2 |
| 20260503015808 | 25 | 302 | 0.0 | 0.0 | 0.00 | 0.00 | 0.00 | 47 | 1012.2 |
| 20260503015708 | 25 | 254 | 0.0 | 3.2 | 0.00 | 0.00 | 0.00 | 48 | 1012.2 |
| 20260503015408 | 25 | 287 | 0.0 | 3.2 | 0.00 | 0.00 | 0.00 | 48 | 1012.2 |
| 20260503015309 | 25 | 275 | 1.6 | 4.8 | 0.00 | 0.00 | 0.00 | 47 | 1012.2 |
| 20260503015208 | 25 | 296 | 1.6 | 6.4 | 0.00 | 0.00 | 0.00 | 47 | 1012.2 |
| 20260503015108 | 25 | 0 | 0.0 | 0.0 | 0.00 | 0.00 | 0.00 | 47 | 1012.2 |
| 20260503015009 | 25 | 0 | 0.0 | 0.0 | 0.00 | 0.00 | 0.00 | 47 | 1012.2 |
| 20260503014809 | 25 | 276 | 3.2 | 4.8 | 0.00 | 0.00 | 0.00 | 46 | 1012.2 |
| 20260503014709 | 25 | 339 | 0.0 | 3.2 | 0.00 | 0.00 | 0.00 | 46 | 1012.2 |
| 20260503014609 | 25 | 322 | 1.6 | 4.8 | 0.00 | 0.00 | 0.00 | 47 | 1012.3 |
| 20260503014509 | 25 | 272 | 0.0 | 3.2 | 0.00 | 0.00 | 0.00 | 46 | 1012.2 |
| 20260503014409 | 25 | 270 | 0.0 | 3.2 | 0.00 | 0.00 | 0.00 | 46 | 1012.3 |
| 20260503014309 | 25 | 272 | 0.0 | 1.6 | 0.00 | 0.00 | 0.00 | 46 | 1012.3 |
| 20260503014208 | 25 | 0 | 0.0 | 0.0 | 0.00 | 0.00 | 0.00 | 46 | 1012.2 |
| 20260503014109 | 25 | 346 | 0.0 | 1.6 | 0.00 | 0.00 | 0.00 | 47 | 1012.2 |
| 20260503014009 | 25 | 30 | 1.6 | 3.2 | 0.00 | 0.00 | 0.00 | 46 | 1012.3 |
| 20260503013909 | 25 | 265 | 1.6 | 3.2 | 0.00 | 0.00 | 0.00 | 46 | 1012.2 |
| 20260503013809 | 25 | 304 | 1.6 | 4.8 | 0.00 | 0.00 | 0.00 | 46 | 1012.3 |
| 20260503013709 | 25 | 277 | 0.0 | 6.4 | 0.00 | 0.00 | 0.00 | 46 | 1012.2 |
| 20260503013609 | 26 | 279 | 3.2 | 4.8 | 0.00 | 0.00 | 0.00 | 45 | 1012.3 |
| 20260503013509 | 26 | 0 | 0.0 | 0.0 | 0.00 | 0.00 | 0.00 | 46 | 1012.3 |
| 20260503013409 | 26 | 43 | 0.0 | 4.8 | 0.00 | 0.00 | 0.00 | 47 | 1012.3 |
| 20260503013309 | 26 | 321 | 1.6 | 3.2 | 0.00 | 0.00 | 0.00 | 46 | 1012.3 |
| 20260503013209 | 26 | 1 | 3.2 | 6.4 | 0.00 | 0.00 | 0.00 | 45 | 1012.3 |
| 20260503012909 | 26 | 356 | 1.6 | 4.8 | 0.00 | 0.00 | 0.00 | 46 | 1012.3 |
| 20260503012610 | 25 | 9 | 1.6 | 4.8 | 0.00 | 0.00 | 0.00 | 47 | 1012.3 |
| 20260503012509 | 25 | 11 | 0.0 | 3.2 | 0.00 | 0.00 | 0.00 | 47 | 1012.3 |
| 20260503012409 | 25 | 313 | 0.0 | 4.8 | 0.00 | 0.00 | 0.00 | 46 | 1012.3 |
| 20260503012309 | 25 | 302 | 0.0 | 1.6 | 0.00 | 0.00 | 0.00 | 46 | 1012.3 |
| 20260503012210 | 25 | 320 | 1.6 | 4.8 | 0.00 | 0.00 | 0.00 | 46 | 1012.3 |
| 20260503012109 | 25 | 287 | 1.6 | 3.2 | 0.00 | 0.00 | 0.00 | 46 | 1012.3 |
| 20260503011809 | 25 | 292 | 0.0 | 3.2 | 0.00 | 0.00 | 0.00 | 47 | 1012.3 |
| 20260503011709 | 25 | 290 | 1.6 | 4.8 | 0.00 | 0.00 | 0.00 | 46 | 1012.3 |
| 20260503011609 | 25 | 286 | 1.6 | 4.8 | 0.00 | 0.00 | 0.00 | 47 | 1012.3 |
| 20260503011309 | 25 | 297 | 1.6 | 3.2 | 0.00 | 0.00 | 0.00 | 47 | 1012.3 |
| 20260503011209 | 25 | 275 | 1.6 | 3.2 | 0.00 | 0.00 | 0.00 | 47 | 1012.3 |
| 20260503011109 | 25 | 338 | 1.6 | 4.8 | 0.00 | 0.00 | 0.00 | 47 | 1012.3 |
| 20260503011009 | 25 | 274 | 1.6 | 3.2 | 0.00 | 0.00 | 0.00 | 46 | 1012.3 |
| 20260503010709 | 25 | 317 | 1.6 | 3.2 | 0.00 | 0.00 | 0.00 | 47 | 1012.3 |
| 20260503010609 | 25 | 296 | 1.6 | 4.8 | 0.00 | 0.00 | 0.00 | 47 | 1012.3 |
| 20260503010509 | 25 | 9 | 3.2 | 6.4 | 0.00 | 0.00 | 0.00 | 47 | 1012.3 |
| 20260503010409 | 25 | 322 | 0.0 | 3.2 | 0.00 | 0.00 | 0.00 | 47 | 1012.3 |
| 20260503010110 | 25 | 292 | 1.6 | 3.2 | 0.00 | 0.00 | 0.00 | 47 | 1012.3 |
| 20260503005809 | 25 | 351 | 1.6 | 3.2 | 0.00 | 0.00 | 0.00 | 48 | 1012.3 |
| 20260503005709 | 25 | 40 | 0.0 | 3.2 | 0.00 | 0.00 | 0.00 | 48 | 1012.3 |
| 20260503005609 | 25 | 337 | 1.6 | 6.4 | 0.00 | 0.00 | 0.00 | 48 | 1012.3 |
| 20260503005509 | 25 | 262 | 3.2 | 6.4 | 0.00 | 0.00 | 0.00 | 47 | 1012.3 |
| 20260503005410 | 25 | 322 | 0.0 | 3.2 | 0.00 | 0.00 | 0.00 | 48 | 1012.3 |
| 20260503005309 | 25 | 312 | 1.6 | 3.2 | 0.00 | 0.00 | 0.00 | 47 | 1012.3 |
| 20260503005210 | 25 | 341 | 3.2 | 6.4 | 0.00 | 0.00 | 0.00 | 47 | 1012.3 |
| 20260503005109 | 25 | 315 | 1.6 | 3.2 | 0.00 | 0.00 | 0.00 | 48 | 1012.4 |
| 20260503005009 | 25 | 9 | 1.6 | 4.8 | 0.00 | 0.00 | 0.00 | 48 | 1012.3 |
| 20260503004910 | 25 | 68 | 1.6 | 4.8 | 0.00 | 0.00 | 0.00 | 48 | 1012.3 |
| 20260503004610 | 25 | 283 | 1.6 | 3.2 | 0.00 | 0.00 | 0.00 | 48 | 1012.4 |
| 20260503004510 | 25 | 274 | 3.2 | 4.8 | 0.00 | 0.00 | 0.00 | 48 | 1012.4 |
| 20260503004209 | 25 | 327 | 1.6 | 4.8 | 0.00 | 0.00 | 0.00 | 49 | 1012.4 |
| 20260503004110 | 25 | 314 | 0.0 | 1.6 | 0.00 | 0.00 | 0.00 | 49 | 1012.4 |
| 20260503004010 | 25 | 304 | 1.6 | 4.8 | 0.00 | 0.00 | 0.00 | 49 | 1012.4 |
| 20260503003910 | 25 | 279 | 3.2 | 6.4 | 0.00 | 0.00 | 0.00 | 49 | 1012.4 |
| 20260503003810 | 25 | 266 | 1.6 | 6.4 | 0.00 | 0.00 | 0.00 | 49 | 1012.4 |
| 20260503003710 | 25 | 288 | 3.2 | 6.4 | 0.00 | 0.00 | 0.00 | 49 | 1012.4 |
| 20260503003410 | 25 | 264 | 0.0 | 3.2 | 0.00 | 0.00 | 0.00 | 49 | 1012.4 |
| 20260503003310 | 25 | 261 | 0.0 | 1.6 | 0.00 | 0.00 | 0.00 | 49 | 1012.4 |
| 20260503003210 | 25 | 18 | 1.6 | 4.8 | 0.00 | 0.00 | 0.00 | 49 | 1012.4 |
| 20260503003110 | 25 | 243 | 0.0 | 4.8 | 0.00 | 0.00 | 0.00 | 49 | 1012.4 |
| 20260503003010 | 25 | 278 | 1.6 | 4.8 | 0.00 | 0.00 | 0.00 | 49 | 1012.4 |
| 20260503002910 | 25 | 287 | 1.6 | 4.8 | 0.00 | 0.00 | 0.00 | 49 | 1012.4 |
| 20260503002810 | 25 | 334 | 0.0 | 3.2 | 0.00 | 0.00 | 0.00 | 49 | 1012.4 |
| 20260503002710 | 25 | 269 | 3.2 | 8.0 | 0.00 | 0.00 | 0.00 | 49 | 1012.4 |
| 20260503002610 | 25 | 266 | 1.6 | 4.8 | 0.00 | 0.00 | 0.00 | 48 | 1012.4 |
| 20260503002510 | 25 | 306 | 1.6 | 6.4 | 0.00 | 0.00 | 0.00 | 49 | 1012.4 |
| 20260503002410 | 25 | 302 | 0.0 | 1.6 | 0.00 | 0.00 | 0.00 | 49 | 1012.4 |
| 20260503002310 | 25 | 300 | 1.6 | 4.8 | 0.00 | 0.00 | 0.00 | 49 | 1012.4 |
| 20260503002210 | 25 | 280 | 1.6 | 3.2 | 0.00 | 0.00 | 0.00 | 49 | 1012.4 |
| 20260503002110 | 25 | 310 | 1.6 | 4.8 | 0.00 | 0.00 | 0.00 | 49 | 1012.4 |
| 20260503001810 | 25 | 318 | 1.6 | 6.4 | 0.00 | 0.00 | 0.00 | 49 | 1012.4 |
| 20260503001510 | 25 | 245 | 0.0 | 1.6 | 0.00 | 0.00 | 0.00 | 50 | 1012.4 |
| 20260503001410 | 25 | 276 | 1.6 | 4.8 | 0.00 | 0.00 | 0.00 | 49 | 1012.4 |
| 20260503001310 | 25 | 288 | 1.6 | 4.8 | 0.00 | 0.00 | 0.00 | 50 | 1012.4 |
| 20260503001210 | 25 | 3 | 3.2 | 6.4 | 0.00 | 0.00 | 0.00 | 49 | 1012.4 |
| 20260503001110 | 25 | 292 | 4.8 | 8.0 | 0.00 | 0.00 | 0.00 | 49 | 1012.5 |
| 20260503001010 | 25 | 306 | 4.8 | 8.0 | 0.00 | 0.00 | 0.00 | 49 | 1012.4 |
| 20260503000910 | 25 | 269 | 1.6 | 4.8 | 0.00 | 0.00 | 0.00 | 49 | 1012.4 |
| 20260503000810 | 25 | 234 | 3.2 | 4.8 | 0.00 | 0.00 | 0.00 | 49 | 1012.5 |
| 20260503000710 | 25 | 291 | 1.6 | 4.8 | 0.00 | 0.00 | 0.00 | 49 | 1012.4 |
| 20260503000610 | 25 | 304 | 1.6 | 4.8 | 0.00 | 0.00 | 0.00 | 49 | 1012.4 |
| 20260503000510 | 25 | 2 | 0.0 | 1.6 | 0.00 | 0.00 | 0.00 | 51 | 1012.4 |
| 20260503000211 | 25 | 245 | 0.0 | 1.6 | 0.00 | 0.00 | 0.00 | 50 | 1012.5 |
| 20260502235910 | 25 | 234 | 1.6 | 6.4 | 0.00 | 0.00 | 0.00 | 50 | 1012.5 |
| 20260502235810 | 25 | 266 | 3.2 | 4.8 | 0.00 | 0.00 | 0.00 | 50 | 1012.6 |
| 20260502235711 | 25 | 261 | 3.2 | 4.8 | 0.00 | 0.00 | 0.00 | 50 | 1012.6 |
| 20260502235610 | 25 | 274 | 1.6 | 4.8 | 0.00 | 0.00 | 0.00 | 50 | 1012.6 |
| 20260502235410 | 25 | 351 | 3.2 | 6.4 | 0.00 | 0.00 | 0.00 | 50 | 1012.6 |
| 20260502235311 | 25 | 273 | 3.2 | 6.4 | 0.00 | 0.00 | 0.00 | 50 | 1012.6 |
| 20260502235010 | 25 | 0 | 0.0 | 0.0 | 0.00 | 0.00 | 0.00 | 50 | 1012.6 |
| 20260502234710 | 25 | 8 | 3.2 | 6.4 | 0.00 | 0.00 | 0.00 | 50 | 1012.6 |
| 20260502234610 | 25 | 347 | 1.6 | 4.8 | 0.00 | 0.00 | 0.00 | 49 | 1012.6 |
| 20260502234511 | 25 | 262 | 1.6 | 6.4 | 0.00 | 0.00 | 0.00 | 49 | 1012.6 |
| 20260502234410 | 25 | 351 | 0.0 | 3.2 | 0.00 | 0.00 | 0.00 | 49 | 1012.6 |
| 20260502234111 | 25 | 268 | 1.6 | 4.8 | 0.00 | 0.00 | 0.00 | 50 | 1012.7 |
| 20260502234011 | 25 | 316 | 0.0 | 1.6 | 0.00 | 0.00 | 0.00 | 50 | 1012.7 |
| 20260502233712 | 25 | 322 | 4.8 | 6.4 | 0.00 | 0.00 | 0.00 | 50 | 1012.7 |
| 20260502233611 | 25 | 259 | 1.6 | 4.8 | 0.00 | 0.00 | 0.00 | 50 | 1012.7 |
| 20260502233511 | 25 | 290 | 1.6 | 4.8 | 0.00 | 0.00 | 0.00 | 49 | 1012.8 |
| 20260502233412 | 24 | 358 | 3.2 | 4.8 | 0.00 | 0.00 | 0.00 | 50 | 1012.8 |
| 20260502233311 | 24 | 6 | 1.6 | 4.8 | 0.00 | 0.00 | 0.00 | 50 | 1012.8 |
| 20260502233211 | 24 | 0 | 0.0 | 0.0 | 0.00 | 0.00 | 0.00 | 50 | 1012.8 |
| 20260502233111 | 24 | 323 | 1.6 | 4.8 | 0.00 | 0.00 | 0.00 | 50 | 1012.8 |
| 20260502233011 | 24 | 281 | 3.2 | 6.4 | 0.00 | 0.00 | 0.00 | 50 | 1012.8 |
| 20260502232711 | 24 | 269 | 3.2 | 6.4 | 0.00 | 0.00 | 0.00 | 50 | 1012.9 |
| 20260502232611 | 24 | 309 | 3.2 | 6.4 | 0.00 | 0.00 | 0.00 | 50 | 1012.9 |
| 20260502232511 | 24 | 324 | 1.6 | 3.2 | 0.00 | 0.00 | 0.00 | 50 | 1012.9 |
| 20260502232211 | 24 | 283 | 1.6 | 6.4 | 0.00 | 0.00 | 0.00 | 50 | 1013.0 |
| 20260502231911 | 24 | 307 | 1.6 | 4.8 | 0.00 | 0.00 | 0.00 | 50 | 1013.0 |
| 20260502231811 | 24 | 289 | 3.2 | 8.0 | 0.00 | 0.00 | 0.00 | 50 | 1013.0 |
| 20260502231711 | 25 | 273 | 4.8 | 8.0 | 0.00 | 0.00 | 0.00 | 50 | 1013.0 |
| 20260502231611 | 25 | 276 | 1.6 | 4.8 | 0.00 | 0.00 | 0.00 | 50 | 1013.1 |
| 20260502231511 | 24 | 258 | 1.6 | 3.2 | 0.00 | 0.00 | 0.00 | 50 | 1013.1 |
| 20260502231411 | 24 | 230 | 3.2 | 6.4 | 0.00 | 0.00 | 0.00 | 50 | 1013.1 |
| 20260502231311 | 24 | 13 | 1.6 | 3.2 | 0.00 | 0.00 | 0.00 | 50 | 1013.1 |
| 20260502231211 | 24 | 330 | 3.2 | 11.3 | 0.00 | 0.00 | 0.00 | 50 | 1013.1 |
| 20260502231111 | 24 | 244 | 1.6 | 4.8 | 0.00 | 0.00 | 0.00 | 50 | 1013.1 |
| 20260502231011 | 24 | 287 | 1.6 | 4.8 | 0.00 | 0.00 | 0.00 | 51 | 1013.1 |
| 20260502230912 | 24 | 77 | 3.2 | 9.7 | 0.00 | 0.00 | 0.00 | 51 | 1013.1 |
| 20260502230811 | 24 | 306 | 3.2 | 6.4 | 0.00 | 0.00 | 0.00 | 50 | 1013.1 |
| 20260502230712 | 24 | 21 | 1.6 | 6.4 | 0.00 | 0.00 | 0.00 | 51 | 1013.1 |
| 20260502230611 | 24 | 14 | 1.6 | 3.2 | 0.00 | 0.00 | 0.00 | 50 | 1013.1 |
| 20260502230511 | 24 | 3 | 1.6 | 6.4 | 0.00 | 0.00 | 0.00 | 50 | 1013.1 |
| 20260502230411 | 24 | 276 | 3.2 | 6.4 | 0.00 | 0.00 | 0.00 | 51 | 1013.1 |
| 20260502230311 | 24 | 13 | 1.6 | 6.4 | 0.00 | 0.00 | 0.00 | 50 | 1013.1 |
| 20260502230211 | 24 | 311 | 1.6 | 4.8 | 0.00 | 0.00 | 0.00 | 51 | 1013.2 |
| 20260502230112 | 24 | 271 | 1.6 | 4.8 | 0.00 | 0.00 | 0.00 | 51 | 1013.1 |
| 20260502230012 | 24 | 237 | 3.2 | 6.4 | 0.00 | 0.00 | 0.00 | 51 | 1013.2 |
| 20260502225711 | 24 | 244 | 3.2 | 6.4 | 0.00 | 0.00 | 0.00 | 51 | 1013.2 |
| 20260502225611 | 24 | 319 | 3.2 | 6.4 | 0.00 | 0.00 | 0.00 | 51 | 1013.3 |
| 20260502225512 | 24 | 284 | 3.2 | 4.8 | 0.00 | 0.00 | 0.00 | 51 | 1013.3 |
| 20260502225411 | 24 | 39 | 3.2 | 6.4 | 0.00 | 0.00 | 0.00 | 50 | 1013.3 |
| 20260502225311 | 24 | 333 | 4.8 | 9.7 | 0.00 | 0.00 | 0.00 | 50 | 1013.3 |
| 20260502225212 | 24 | 337 | 0.0 | 3.2 | 0.00 | 0.00 | 0.00 | 51 | 1013.4 |
| 20260502225112 | 24 | 350 | 0.0 | 3.2 | 0.00 | 0.00 | 0.00 | 51 | 1013.3 |
| 20260502225012 | 24 | 343 | 1.6 | 3.2 | 0.00 | 0.00 | 0.00 | 50 | 1013.3 |
| 20260502224912 | 24 | 279 | 0.0 | 3.2 | 0.00 | 0.00 | 0.00 | 50 | 1013.4 |
| 20260502224812 | 24 | 323 | 1.6 | 4.8 | 0.00 | 0.00 | 0.00 | 51 | 1013.4 |
| 20260502224711 | 24 | 308 | 3.2 | 8.0 | 0.00 | 0.00 | 0.00 | 51 | 1013.4 |
| 20260502224612 | 24 | 268 | 3.2 | 6.4 | 0.00 | 0.00 | 0.00 | 51 | 1013.4 |
| 20260502224512 | 24 | 304 | 3.2 | 4.8 | 0.00 | 0.00 | 0.00 | 51 | 1013.4 |
| 20260502224412 | 24 | 164 | 1.6 | 6.4 | 0.00 | 0.00 | 0.00 | 50 | 1013.4 |
| 20260502224312 | 24 | 338 | 3.2 | 9.7 | 0.00 | 0.00 | 0.00 | 50 | 1013.3 |
| 20260502224212 | 24 | 286 | 1.6 | 4.8 | 0.00 | 0.00 | 0.00 | 50 | 1013.4 |
| 20260502224112 | 24 | 49 | 1.6 | 8.0 | 0.00 | 0.00 | 0.00 | 50 | 1013.4 |
| 20260502223812 | 24 | 201 | 1.6 | 3.2 | 0.00 | 0.00 | 0.00 | 49 | 1013.4 |
| 20260502223712 | 24 | 333 | 1.6 | 3.2 | 0.00 | 0.00 | 0.00 | 50 | 1013.4 |
| 20260502223612 | 24 | 291 | 1.6 | 4.8 | 0.00 | 0.00 | 0.00 | 50 | 1013.5 |
| 20260502223512 | 24 | 309 | 3.2 | 9.7 | 0.00 | 0.00 | 0.00 | 50 | 1013.5 |
| 20260502223412 | 24 | 292 | 1.6 | 4.8 | 0.00 | 0.00 | 0.00 | 49 | 1013.4 |
| 20260502223312 | 24 | 229 | 4.8 | 8.0 | 0.00 | 0.00 | 0.00 | 49 | 1013.5 |
| 20260502223212 | 24 | 227 | 3.2 | 6.4 | 0.00 | 0.00 | 0.00 | 49 | 1013.5 |
| 20260502223112 | 24 | 295 | 1.6 | 4.8 | 0.00 | 0.00 | 0.00 | 49 | 1013.5 |
| 20260502223012 | 24 | 226 | 1.6 | 4.8 | 0.00 | 0.00 | 0.00 | 50 | 1013.5 |
| 20260502222712 | 24 | 226 | 1.6 | 6.4 | 0.00 | 0.00 | 0.00 | 50 | 1013.5 |
| 20260502222612 | 24 | 336 | 3.2 | 9.7 | 0.00 | 0.00 | 0.00 | 50 | 1013.6 |
| 20260502222512 | 24 | 341 | 1.6 | 3.2 | 0.00 | 0.00 | 0.00 | 50 | 1013.6 |
| 20260502222412 | 24 | 222 | 3.2 | 8.0 | 0.00 | 0.00 | 0.00 | 50 | 1013.6 |
| 20260502222312 | 24 | 229 | 3.2 | 8.0 | 0.00 | 0.00 | 0.00 | 49 | 1013.6 |
| 20260502222212 | 23 | 243 | 1.6 | 6.4 | 0.00 | 0.00 | 0.00 | 50 | 1013.6 |
| 20260502222112 | 23 | 15 | 1.6 | 4.8 | 0.00 | 0.00 | 0.00 | 50 | 1013.6 |
| 20260502222012 | 23 | 7 | 1.6 | 4.8 | 0.00 | 0.00 | 0.00 | 50 | 1013.6 |
| 20260502221912 | 23 | 300 | 1.6 | 4.8 | 0.00 | 0.00 | 0.00 | 51 | 1013.7 |
| 20260502221712 | 23 | 256 | 1.6 | 6.4 | 0.00 | 0.00 | 0.00 | 50 | 1013.6 |
| 20260502221412 | 23 | 301 | 3.2 | 9.7 | 0.00 | 0.00 | 0.00 | 51 | 1013.7 |
| 20260502221312 | 23 | 263 | 6.4 | 8.0 | 0.00 | 0.00 | 0.00 | 51 | 1013.6 |
| 20260502221012 | 23 | 332 | 1.6 | 4.8 | 0.00 | 0.00 | 0.00 | 51 | 1013.7 |
| 20260502220912 | 23 | 354 | 1.6 | 4.8 | 0.00 | 0.00 | 0.00 | 51 | 1013.7 |
| 20260502220812 | 23 | 273 | 1.6 | 4.8 | 0.00 | 0.00 | 0.00 | 51 | 1013.7 |
| 20260502220712 | 23 | 17 | 1.6 | 4.8 | 0.00 | 0.00 | 0.00 | 51 | 1013.7 |
| 20260502220612 | 23 | 343 | 3.2 | 6.4 | 0.00 | 0.00 | 0.00 | 51 | 1013.7 |
| 20260502220513 | 23 | 331 | 0.0 | 3.2 | 0.00 | 0.00 | 0.00 | 52 | 1013.7 |
| 20260502220412 | 23 | 321 | 3.2 | 4.8 | 0.00 | 0.00 | 0.00 | 51 | 1013.7 |
| 20260502220312 | 23 | 9 | 3.2 | 8.0 | 0.00 | 0.00 | 0.00 | 51 | 1013.7 |
| 20260502220012 | 23 | 278 | 1.6 | 4.8 | 0.00 | 0.00 | 0.00 | 51 | 1013.8 |
| 20260502215913 | 23 | 303 | 3.2 | 6.4 | 0.00 | 0.00 | 0.00 | 51 | 1013.8 |
| 20260502215813 | 23 | 11 | 3.2 | 9.7 | 0.00 | 0.00 | 0.00 | 51 | 1013.8 |
| 20260502215713 | 23 | 74 | 3.2 | 6.4 | 0.00 | 0.00 | 0.00 | 52 | 1013.8 |
| 20260502215612 | 23 | 332 | 1.6 | 4.8 | 0.00 | 0.00 | 0.00 | 52 | 1013.8 |
| 20260502215513 | 23 | 61 | 0.0 | 1.6 | 0.00 | 0.00 | 0.00 | 52 | 1013.8 |
| 20260502215412 | 23 | 23 | 3.2 | 6.4 | 0.00 | 0.00 | 0.00 | 52 | 1013.8 |
| 20260502215113 | 23 | 280 | 3.2 | 6.4 | 0.00 | 0.00 | 0.00 | 51 | 1013.9 |
| 20260502215012 | 23 | 277 | 0.0 | 4.8 | 0.00 | 0.00 | 0.00 | 51 | 1013.9 |
| 20260502214913 | 23 | 264 | 1.6 | 4.8 | 0.00 | 0.00 | 0.00 | 51 | 1013.9 |
| 20260502214613 | 23 | 276 | 3.2 | 6.4 | 0.00 | 0.00 | 0.00 | 51 | 1013.9 |
| 20260502214513 | 23 | 251 | 3.2 | 8.0 | 0.00 | 0.00 | 0.00 | 51 | 1013.9 |
| 20260502214413 | 23 | 247 | 3.2 | 8.0 | 0.00 | 0.00 | 0.00 | 51 | 1013.9 |
| 20260502214313 | 23 | 224 | 3.2 | 8.0 | 0.00 | 0.00 | 0.00 | 52 | 1013.9 |
| 20260502214213 | 23 | 215 | 4.8 | 8.0 | 0.00 | 0.00 | 0.00 | 52 | 1013.9 |
| 20260502214113 | 23 | 216 | 6.4 | 11.3 | 0.00 | 0.00 | 0.00 | 52 | 1013.9 |
| 20260502214013 | 23 | 213 | 4.8 | 6.4 | 0.00 | 0.00 | 0.00 | 51 | 1013.9 |
| 20260502213913 | 23 | 229 | 4.8 | 8.0 | 0.00 | 0.00 | 0.00 | 51 | 1013.9 |
| 20260502213813 | 23 | 287 | 3.2 | 8.0 | 0.00 | 0.00 | 0.00 | 52 | 1014.0 |
| 20260502213713 | 23 | 252 | 3.2 | 8.0 | 0.00 | 0.00 | 0.00 | 52 | 1013.9 |
| 20260502213613 | 22 | 239 | 4.8 | 8.0 | 0.00 | 0.00 | 0.00 | 52 | 1014.0 |
| 20260502213513 | 22 | 220 | 6.4 | 9.7 | 0.00 | 0.00 | 0.00 | 52 | 1014.0 |
| 20260502213413 | 22 | 234 | 4.8 | 6.4 | 0.00 | 0.00 | 0.00 | 52 | 1014.0 |
| 20260502213313 | 22 | 222 | 3.2 | 4.8 | 0.00 | 0.00 | 0.00 | 52 | 1014.0 |
| 20260502213213 | 22 | 260 | 1.6 | 3.2 | 0.00 | 0.00 | 0.00 | 51 | 1014.0 |
| 20260502212713 | 22 | 262 | 0.0 | 3.2 | 0.00 | 0.00 | 0.00 | 52 | 1014.2 |
| 20260502212213 | 22 | 255 | 1.6 | 4.8 | 0.00 | 0.00 | 0.00 | 53 | 1014.2 |
| 20260502211913 | 22 | 347 | 1.6 | 6.4 | 0.00 | 0.00 | 0.00 | 53 | 1014.2 |
| 20260502211813 | 22 | 5 | 1.6 | 6.4 | 0.00 | 0.00 | 0.00 | 53 | 1014.2 |
| 20260502211713 | 22 | 0 | 0.0 | 0.0 | 0.00 | 0.00 | 0.00 | 53 | 1014.2 |
| 20260502211613 | 22 | 293 | 0.0 | 3.2 | 0.00 | 0.00 | 0.00 | 52 | 1014.2 |
| 20260502211513 | 22 | 302 | 1.6 | 3.2 | 0.00 | 0.00 | 0.00 | 53 | 1014.2 |
| 20260502211413 | 22 | 318 | 1.6 | 4.8 | 0.00 | 0.00 | 0.00 | 53 | 1014.2 |
| 20260502211314 | 22 | 123 | 1.6 | 9.7 | 0.00 | 0.00 | 0.00 | 53 | 1014.2 |
| 20260502211213 | 22 | 25 | 1.6 | 6.4 | 0.00 | 0.00 | 0.00 | 54 | 1014.2 |
| 20260502211113 | 22 | 273 | 3.2 | 6.4 | 0.00 | 0.00 | 0.00 | 54 | 1014.2 |
| 20260502211013 | 22 | 305 | 1.6 | 4.8 | 0.00 | 0.00 | 0.00 | 54 | 1014.2 |
| 20260502210913 | 22 | 16 | 3.2 | 8.0 | 0.00 | 0.00 | 0.00 | 53 | 1014.2 |
| 20260502210813 | 22 | 1 | 1.6 | 6.4 | 0.00 | 0.00 | 0.00 | 53 | 1014.2 |
| 20260502210713 | 22 | 349 | 3.2 | 9.7 | 0.00 | 0.00 | 0.00 | 53 | 1014.3 |
| 20260502210614 | 22 | 314 | 1.6 | 4.8 | 0.00 | 0.00 | 0.00 | 53 | 1014.3 |
| 20260502210114 | 22 | 256 | 1.6 | 6.4 | 0.00 | 0.00 | 0.00 | 53 | 1014.3 |
| 20260502210013 | 22 | 20 | 1.6 | 4.8 | 0.00 | 0.00 | 0.00 | 53 | 1014.3 |
| 20260502205914 | 22 | 293 | 1.6 | 3.2 | 0.00 | 0.00 | 0.00 | 54 | 1014.3 |
| 20260502205814 | 22 | 13 | 3.2 | 6.4 | 0.00 | 0.00 | 0.00 | 54 | 1014.3 |
| 20260502205714 | 22 | 309 | 1.6 | 4.8 | 0.00 | 0.00 | 0.00 | 53 | 1014.4 |
| 20260502205614 | 22 | 326 | 3.2 | 9.7 | 0.00 | 0.00 | 0.00 | 54 | 1014.3 |
| 20260502205514 | 22 | 330 | 3.2 | 6.4 | 0.00 | 0.00 | 0.00 | 55 | 1014.4 |
| 20260502205414 | 22 | 218 | 3.2 | 4.8 | 0.00 | 0.00 | 0.00 | 55 | 1014.3 |
| 20260502205314 | 22 | 18 | 0.0 | 3.2 | 0.00 | 0.00 | 0.00 | 56 | 1014.3 |
| 20260502205214 | 22 | 11 | 0.0 | 1.6 | 0.00 | 0.00 | 0.00 | 56 | 1014.4 |
| 20260502205114 | 22 | 110 | 0.0 | 1.6 | 0.00 | 0.00 | 0.00 | 56 | 1014.4 |
| 20260502205014 | 22 | 223 | 0.0 | 0.0 | 0.00 | 0.00 | 0.00 | 56 | 1014.4 |
| 20260502204714 | 21 | 321 | 1.6 | 3.2 | 0.00 | 0.00 | 0.00 | 56 | 1014.4 |
| 20260502204414 | 21 | 306 | 3.2 | 4.8 | 0.00 | 0.00 | 0.00 | 56 | 1014.4 |
| 20260502204314 | 21 | 288 | 1.6 | 4.8 | 0.00 | 0.00 | 0.00 | 56 | 1014.4 |
| 20260502204214 | 21 | 315 | 1.6 | 3.2 | 0.00 | 0.00 | 0.00 | 56 | 1014.5 |